{"data":{"norad_id":54803,"intl_designator":"2022-175AX","name":"STARLINK-5430","alt_names":[],"object_type":"PAYLOAD","status":"ACTIVE","operator":null,"country":"US","launch_date":"2022-12-17","launch_site_code":"AFETR","launch_vehicle":null,"mission":null,"orbit_class":"UNKNOWN","rcs_meters":null,"size_class":null,"mass_kg":null,"dimensions":null,"purposes":["comms"],"wikipedia_slug":null,"has_3d_model":false,"image_url":null,"decayed_at":null,"tle_current":{"epoch":"2026-09-20T13:25:27.879744Z","epoch_age_seconds":88294,"freshness":"FRESH","line1":"1 54803U 22175AX  26263.55935046  .00000181  00000+0  16499-4 0  9995","line2":"2 54803  53.1585 241.2093 0001182  88.1450 271.9688 15.34390090209442","mean_motion":15.3439009,"eccentricity":0.0001182,"inclination_deg":53.1585,"raan_deg":241.2093,"arg_perigee_deg":88.145,"mean_anomaly_deg":271.9688,"bstar":1.6499e-5,"rev_number":20944,"period_min":93.848364205741,"perigee_km":461.92410417613,"apogee_km":463.54128577202,"semimajor_km":6840.8696949741,"source":"CELESTRAK","updated_at":"2026-09-21T09:00:33.129799Z"}}}